Regional Weather Roundup
Issued by NWS Upton, NY

Current Version | Previous Version | Text Only | Print | Product List | Glossary On
Versions: 1 2 3 4 5 6 7 8 9 10 11 12 13 14 15 16 17 18 19 20 21 22 23 24 25 26 27
000
ASUS41 KOKX 290304
RWROKX

REGIONAL WEATHER ROUNDUP
NATIONAL WEATHER SERVICE NEW YORK NY
1100 PM EDT SAT MAY 28 2016

NOTE: "FAIR" INDICATES FEW OR NO CLOUDS BELOW 12,000 FEET WITH NO
SIGNIFICANT WEATHER AND/OR OBSTRUCTIONS TO VISIBILITY.

NYZ071-072-176-178-NJZ106-104-290400-
NEW YORK CITY METRO AREA


CITY           SKY/WX    TMP DP  RH WIND       PRES   REMARKS
CENTRAL PARK   PTCLDY    80  64  58 MISG      30.14S
LAGUARDIA APRT PTCLDY    82  68  62 SW13      30.11R
KENNEDY INTL   PTCLDY    71  58  63 S7        30.14R
NEWARK/LIBERTY PTCLDY    81  65  58 S12       30.11S
BRNX BOT. GARD   N/A     77  63  61 E2        30.12F
TETERBORO      PTCLDY    80  64  58 S6        30.10S
$$

NYZ177-179-078>081-290400-
LONG ISLAND NEW YORK

CITY           SKY/WX    TMP DP  RH WIND       PRES   REMARKS
FARMINGDALE    PTCLDY    72  53  51 SW7       30.14R
ISLIP          CLOUDY    72  47  40 SW15G23   30.14R
SHIRLEY        CLEAR     71  47  42 SW10G20   30.16R
RIVERHEAD        N/A     72  46  40 S3        30.13S
WESTHAMPTON    CLEAR     68  47  46 SW13G18   30.17R
EAST HAMPTON   FAIR      68  45  44 SW8       30.14S
MONTAUK POINT    N/A     67  48  50 SW9       30.16R
$$

NYZ052-065-067-290400-
HUDSON VALLEY

CITY           SKY/WX    TMP DP  RH WIND       PRES   REMARKS
WHITE PLAINS   PTCLDY    71  64  78 CALM      30.13S
NEWBURGH       CLEAR     75  70  83 W8        30.13S
MONTGOMERY     CLOUDY    72  68  87 CALM      30.11S
POUGHKEEPSIE   CLEAR     75  68  78 CALM      30.10R
ALBANY         PTCLDY    78  65  63 S6        30.08R
$$

NJZ001-105-106-008-010-013-015-019>022-104-290400-
NEW JERSEY

CITY           SKY/WX    TMP DP  RH WIND       PRES   REMARKS
NEWARK/LIBERTY PTCLDY    81  65  58 S12       30.11S
TETERBORO      PTCLDY    80  64  58 S6        30.10S
CALDWELL       CLEAR     74  71  91 CALM      30.12S
MORRISTOWN     CLEAR     72  68  88 CALM      30.12S
SOMERVILLE     CLEAR     72  68  87 CALM      30.11R
SUSSEX         CLOUDY    71  68  90 CALM      30.12S
ANDOVER          N/A     71  68  90 CALM      30.13F
TRENTON        CLEAR     77  60  55 SW10      30.13S
MILLVILLE      CLEAR     70  55  59 VRB3      30.16F
ATLANTIC CITY  CLEAR     70  56  61 S10       30.17S
WRIGHTSTOWN    NOT AVBL
TOMS RIVER     CLEAR     70  45  40 S7        30.16F
BELMAR         CLEAR     74  42  31 S8        30.16S
$$

PAZ047>061-062-071-290400-
EASTERN PENNSYLVANIA

CITY           SKY/WX    TMP DP  RH WIND       PRES   REMARKS
PHILADELPHIA   PTCLDY    74  58  57 S6        30.15S
ALLENTOWN      CLEAR     77  63  61 SW3       30.13S
SCRANTON       CLEAR     76  67  73 CALM      30.13S
$$

CTZ002-004>006-009-010-012-RIZ004-006-007-MAZ004-011-015-290400-
SOUTHERN NEW ENGLAND
 IN CT

CITY           SKY/WX    TMP DP  RH WIND       PRES   REMARKS
BRADLEY INTL   PTCLDY    76  65  68 S8        30.09S
HARTFORD       PTCLDY    77  64  64 S7        30.10S
DANBURY        CLEAR     70  66  87 SW3       30.14S
WTRBRY/OXFORD    N/A     72  61  68 S5        30.15S
BRIDGEPORT     CLOUDY    73  57  57 SW7       30.12S
MERIDEN        CLEAR     74  60  61 S6        30.12S
NEW HAVEN      PTCLDY    71  59  65 S6        30.13S
CHESTER        FAIR      72  59  64 SW8G14    30.14R
GROTON         CLEAR     66  59  78 SW6       30.13S
WILLIMANTIC    CLEAR     75  63  66 SE5       30.12S

 IN RI

CITY           SKY/WX    TMP DP  RH WIND       PRES   REMARKS
PROVIDENCE     PTCLDY    76  62  62 SW9       30.11F
BLOCK ISLAND   CLEAR     64  53  67 SW16      30.15S
WESTERLY       CLEAR     69  58  67 SW6       30.14S

 IN MA

CITY           SKY/WX    TMP DP  RH WIND       PRES   REMARKS
BOSTON         MOCLDY    79  66  64 SW9       30.08R
WORCESTER      CLEAR     72  65  78 SW9       30.14S
WESTFIELD      CLEAR     75  67  76 S5        30.09S
PROVINCETOWN   PTCLDY    63  58  83 S13       30.10S
NANTUCKET      MOCLDY    59  55  87 SW8       30.15S
$$

ANZ330-335-338-340-345-350-353-355-290400-
COASTAL MARINE OBSERVATIONS


STATION/POSITION TIME  SKY/WX   TEMP    WIND        PRES    VSBY  WAVE
                                AIR SEA DIR/SP/G                  HT/PER
                 (UTC)          (F)     (DEG/KT/KT) (MB)    (MI)  (FT/S)
NY HARB ENTRANCE 0150            63 58  210/ 16/ 17 1019.8          3/ 5
20S FIRE ISLAND  0150            63 60  220/ 16/ 17 1020.4          3/ 5
GREAT SOUTH BAY  0215            68 70  220/ 14/ 16   N/A
23 SSW MONTAUK P 0250            61 57  240/ 12/ 14 1020.6          3/ 5
15 E BARNEGAT LI 0222               59                N/A           3/ 8
HUDSON CANYON    0150            61 59              1021.8          3/ 8
KINGS POINT      0200                               1019.5
EXECUTION ROCKS  NOT AVBL
CENTRAL LI SOUND 0245            66     200/  2/  4   N/A           1/ 3
EASTERN LI SOUND 0200            60 54  230/  4/  6   N/A
ROBBINS REEF     0200                               1019.0
$$


>>>>>>>>>>>>>>>>>>>>>>>>>>>> KEY <<<<<<<<<<<<<<<<<<<<<<<<<<<
>                                                          <
>     SKY/WX - SKY CONDITION/PRESENT WEATHER               <
>     TMP    - TEMPERATURE IN FAHRENHEIT                   <
>     DP     - DEWPOINT IN FAHRENHEIT                      <
>     RH     - RELATIVE HUMIDITY IN PERCENT                <
>     WIND   - DIRECTION AND SPEED IN MPH                  <
>     PRES   - MEAN SEA LEVEL PRESSURE IN INCHES OF HG     <
>     WCI    - WIND CHILL INDEX                            <
>     VSB    - VISIBILITY IN MILES                         <
>     HX     - HEAT INDEX                                  <
>     TC     - TEMPERATURE IN CELSIUS                      <
>     VRB    - VARIABLE WIND DIRECTION                     <
>                                                          <
>>>>>>>>>>>>>>>>>>>>>>>>>>>> KEY <<<<<<<<<<<<<<<<<<<<<<<<<<<






USA.gov is the U.S. government's official web portal to all federal, state and local government web resources and services.